Find Starlink 2273

NORAD ID: 47993 Int'l Des: 2021-024 Owner: SPXS Country: US Constellation: starlink operational
LEOCIRCULARSTARLINK_TYPE

現在のビュー

3D地球を読み込み中...

About Starlink 2273

Starlink 2273 (NORAD 47993) is a starlink constellation satellite (v1.0) launched Mar 24, 2021 by SPXS of US. It operates in LEO, CIRCULAR, STARLINK_TYPE orbit with a mass of 260.00 kg.

Starlink 2273について

説明を読み込み中...

次回通過

Passes for default location (London). Set your location on the main map for personalized predictions.

高度履歴

Loading altitude history...

軌道要素

1 47993U 21024S 26167.32516679 .00065511 00000-0 11711-2 0 9993
2 47993 53.1489 189.6006 0006017 1.8981 358.2050 15.49414527290348
Epoch: Jun 16, 2026 • Age: 6 hours

現在のステータス

高度 428.8 km
速度 7.66 km/s
衛星直下点 -39.13°S, 39.63°E
打ち上げ日 Mar 24, 2021
運用期間 5.2 years
タイプ internet

技術仕様

分類 Payload
質量 260.00 kg
乾燥質量 248.00 kg
総質量 260.00 kg
長さ 0.20 m
直径 2.80 m
スパン 9.00 m
形状 Box + pan
製造者 SPXS
バスタイプ Starlink
フェーズステータス In Orbit
所有者/国 SPXS/US

Most Searched